FENGYUN 3F

Last updated on Sun Oct 06 2024 00:02:18 GMT+0000 (Coordinated Universal Time)

1 57490U 23111A 24279.51576502 .00000704 00000+0 35257-3 0 9993 2 57490 98.7593 347.5788 0001839 111.5881 248.5491 14.19897988 60920
UTC large
Height (km)
Speed (km/s)
/
Latitude / Longitude
Inclination (degrees)
Orbital Period (minutes)
Azimuth
Elevation
Range (km)
Doppler Factor

Next 0 passes for location: London (51.5072 / 0.1276)

Sorry there are no passes over London.